Beaumont, TX

4:29 AM CDT on August 18, 2017 (GMT -0500)
Southeast Texas Regional

Weather History for KBPT - October, 2013

Change the Weather History Date:

Friday, October 18, 2013

  Actual Average Record
Temperature  
Mean Temperature 66 °F 70 °F  
Max Temperature 74 °F 80 °F 96 °F (1905)
Min Temperature 57 °F 60 °F 38 °F (1948)
Degree Days  
Heating Degree Days 0 1  
Month to date heating degree days 0 8  
Since 1 July heating degree days 0 9  
Cooling Degree Days 1 6  
Month to date cooling degree days 176 141  
Year to date cooling degree days 2900 2727  
Growing Degree Days 15 (Base 50)    
Moisture  
Dew Point 58 °F    
Average Humidity 75    
Maximum Humidity 97    
Minimum Humidity 53    
Precipitation  
Precipitation 0.83 in 0.19 in 6.58 in (1980)
Month to date precipitation 3.57 3.23  
Year to date precipitation 46.92 48.43  
Snow  
Snow 0.00 in 0.00 in 0.00 in ()
Month to date snowfall 0.0 0.0  
Since 1 July snowfall 0.0 0.0  
Since 1 September snowfall 0.0 0.0  
Snow Depth 0.00 in    
Sea Level Pressure  
Sea Level Pressure 29.97 in    
Wind  
Wind Speed 8 mph (ENE)    
Max Wind Speed 24 mph    
Max Gust Speed 31 mph    
Visibility 10 miles    
Events Rain , Thunderstorm    
T = Trace of Precipitation, MM = Missing Value Source: NWS Daily Summary

Daily Weather History Graph

Daily Weather History Graph

Search for Another Location

Airport or City:

Trip Planner

Search our weather history database for the weather conditions in past years. The results will help you decide how hot, cold, wet, or windy it might be!

Date:

Astronomy

Oct. 18, 2013 Rise Set
Actual Time 7:20 AM CDT 6:41 PM CDT
Civil Twilight 6:55 AM CDT 7:05 PM CDT
Nautical Twilight 6:28 AM CDT 7:33 PM CDT
Astronomical Twilight 6:00 AM CDT 8:01 PM CDT
Moon 6:34 PM CDT 6:56 AM CDT
Length of Visible Light 12h 10m
Length of Day
11h 21m
Full, 100% of the Moon is Illuminated
Oct 18
Full
Oct 18
Full
Oct 26
Last Quarter
Nov 3
New
Nov 9
First Quarter

Hourly Weather History & Observations

Time (CDT) Temp. Dew Point Humidity Pressure Visibility Wind Dir Wind Speed Gust Speed Precip Events Conditions
12:53 AM 61.0 °F 55.0 °F 81% 29.99 in 10.0 mi NNE 4.6 mph - N/A   Clear
1:53 AM 60.1 °F 55.0 °F 83% 29.99 in 10.0 mi NE 4.6 mph - N/A   Clear
2:53 AM 60.1 °F 55.9 °F 86% 30.00 in 10.0 mi NE 3.5 mph - N/A   Clear
3:53 AM 61.0 °F 59.0 °F 93% 29.99 in 10.0 mi NE 3.5 mph - N/A   Clear
4:53 AM 61.0 °F 59.0 °F 93% 29.99 in 10.0 mi NE 3.5 mph - N/A   Clear
5:53 AM 62.1 °F 60.1 °F 93% 30.00 in 10.0 mi NE 4.6 mph - N/A   Clear
6:53 AM 62.1 °F 60.1 °F 93% 30.00 in 10.0 mi ENE 4.6 mph - N/A   Clear
7:53 AM 63.0 °F 60.1 °F 90% 30.03 in 10.0 mi ENE 5.8 mph - N/A   Mostly Cloudy
8:53 AM 64.0 °F 57.9 °F 80% 30.04 in 10.0 mi East 10.4 mph - N/A   Mostly Cloudy
9:53 AM 66.0 °F 57.0 °F 73% 30.02 in 10.0 mi East 11.5 mph - N/A   Mostly Cloudy
10:53 AM 69.1 °F 57.0 °F 65% 30.01 in 10.0 mi East 16.1 mph 20.7 mph N/A   Scattered Clouds
11:53 AM 70.0 °F 55.9 °F 61% 30.02 in 10.0 mi East 15.0 mph - N/A   Mostly Cloudy
12:53 PM 70.0 °F 55.0 °F 59% 29.98 in 10.0 mi East 15.0 mph 24.2 mph N/A   Scattered Clouds
1:53 PM 72.0 °F 54.0 °F 53% 29.95 in 10.0 mi East 11.5 mph - N/A   Mostly Cloudy
2:53 PM 69.1 °F 55.0 °F 61% 29.94 in 10.0 mi ESE 9.2 mph - 0.00 in Rain Light Rain
3:53 PM 69.1 °F 57.0 °F 65% 29.91 in 10.0 mi East 12.7 mph - 0.01 in   Mostly Cloudy
4:53 PM 72.0 °F 55.9 °F 57% 29.92 in 10.0 mi ESE 9.2 mph - N/A   Clear
5:53 PM 71.1 °F 55.0 °F 57% 29.90 in 10.0 mi East 8.1 mph - N/A   Mostly Cloudy
6:53 PM 70.0 °F 55.9 °F 61% 29.91 in 10.0 mi East 8.1 mph - N/A   Partly Cloudy
7:53 PM 69.1 °F 57.9 °F 68% 29.92 in 10.0 mi East 5.8 mph - N/A   Overcast
8:53 PM 68.0 °F 57.9 °F 70% 29.95 in 10.0 mi North 5.8 mph - N/A   Mostly Cloudy
9:53 PM 66.9 °F 60.1 °F 79% 29.94 in 10.0 mi ENE 5.8 mph - N/A   Overcast
10:36 PM 66.2 °F 62.6 °F 88% 29.95 in 10.0 mi North 8.1 mph - 0.00 in   Overcast
10:53 PM 66.0 °F 62.1 °F 87% 29.95 in 10.0 mi North 10.4 mph - 0.00 in   Overcast
11:53 PM 64.0 °F 61.0 °F 90% 29.96 in 10.0 mi NNW 16.1 mph - 0.00 in Rain , Thunderstorm Light Rain